Hourly Weather Roundup
Issued by NWS Central Illinois

Home | Current Version | Previous Version | Text Only | Print | Product List | Glossary On
Versions: 1 2 3 4 5 6 7 8 9 10 11 12 13 14 15 16 17 18 19 20 21 22 23 24 25 26 27 28 29 30 31 32 33 34 35 36 37 38 39 40 41 42 43 44 45 46 47 48 49 50
000
NZUS43 KILX 040110
HWRILX

AREA WEATHER ROUNDUP
NATIONAL WEATHER SERVICE, LINCOLN IL
700 PM CST SAT DEC 03 2016


CITY           SKY/WX    TMP DP  RH WIND       PRES   REMARKS
BLOOMINGTON    PTCLDY    29  27  92 E7        30.31S WCI  22
CHAMPAIGN      CLOUDY    32  27  81 NE7       30.31F WCI  26
DANVILLE       CLOUDY    32  27  81 N3        30.30S
DECATUR        CLOUDY    35  30  82 E8        30.30F WCI  29
EFFINGHAM      CLOUDY    38  33  82 NE5       30.31F WCI  35
FLORA          CLOUDY    41  33  75 E6        30.30F
GALESBURG      CLOUDY    33  28  83 E5        30.28R WCI  28
JACKSONVILLE   CLOUDY    37  34  87 E6        30.28R WCI  33
LACON          PTCLDY    32  26  78 SE5       30.29S WCI  27
LAWRENCEVILLE  CLOUDY    39  31  72 NE5       30.32R
LITCHFIELD     CLOUDY    36  33  88 E3        30.27F
$$


CITY           SKY/WX    TMP DP  RH WIND       PRES   REMARKS
LINCOLN        CLOUDY    34  32  90 E6        30.30S WCI  29
MACOMB         CLOUDY    35  31  85 E7        30.30S WCI  29
MATTOON        CLOUDY    34  29  82 E6        30.30S WCI  29
MT CARMEL AP   CLOUDY    39  32  74 NE7       30.30F WCI  34
OLNEY-NOBLE AP PTCLDY    37  34  87 NE6       30.31F WCI  33
PARIS          CLOUDY    33  29  85 CALM      30.32F
PEORIA         PTCLDY    34  28  79 E5        30.30S WCI  30
PONTIAC        PTCLDY    32  31  94 SE5       30.31F WCI  27
RANTOUL        CLOUDY    34  29  81 NE6       30.31F WCI  29
SPRINGFIELD    CLOUDY    37  31  78 E8        30.29F WCI  31
TAYLORVILLE    CLOUDY    36  32  84 E8        30.29S WCI  30
$$

...REGIONAL REPORTS...


CITY           SKY/WX    TMP DP  RH WIND       PRES   REMARKS
CHICAGO O`HARE MOCLDY    31  24  75 S3        30.29F
KANKAKEE       PTCLDY    30  26  84 S3        30.32F
MOLINE         PTCLDY    34  26  72 S6        30.28R WCI  29
MOUNT STERLING CLOUDY    37  32  83 E7        30.26S WCI  31
MOUNT VERNON   NOT AVBL
PITTSFIELD     CLOUDY    38  34  84 SE5       30.28R WCI  35
QUINCY         CLOUDY    38  32  79 E7        30.26R WCI  33
ROCKFORD       CLOUDY    33  26  75 SE3       30.31R
$$


CITY           SKY/WX    TMP DP  RH WIND       PRES   REMARKS
BURLINGTON     CLOUDY    35  29  78 E7        30.26S WCI  29
CEDAR RAPIDS   CLOUDY    35  30  82 SE5       30.24F WCI  31
DES MOINES     LGT RAIN  39  33  79 E6        30.20S WCI  35
KIRKSVILLE     CLOUDY    41  33  73 E10       30.21F WCI  35
OTTUMWA        CLOUDY    38  29  70 SE10      30.23R WCI  31
ST LOUIS       CLOUDY    42  32  67 E7        30.27S
$$


CITY           SKY/WX    TMP DP  RH WIND       PRES   REMARKS
TERRE HAUTE    CLOUDY    34  28  79 CALM      30.32S
EVANSVILLE     CLOUDY    41  31  67 NE6       30.30F
INDIANAPOLIS   CLOUDY    33  27  78 N5        30.31S WCI  29
LAFAYETTE      CLOUDY    34  27  75 NE5       30.32S WCI  30
MADISON        CLOUDY    32  23  69 CALM      30.27S
MILWAUKEE      CLOUDY    33  20  58 NW3       30.29S
$$






USA.gov is the U.S. government's official web portal to all federal, state and local government web resources and services.